Location: Coat-er-huiler
(47.9637°N, 3.5719°W)
Time: 16:58:19
(UTC+00:00)

Daily predictions for brighter satellites

Satellite Brightness Start Highest point End
(mag) Time Altitude Azimuth Time Altitude Azimuth Time Altitude Azimuth
Resurs 01 Rocket 2.0 20:49:31 10° S 20:53:55 69° WSW 20:58:23 10° NNW
IRAS Rocket 4.4 20:48:46 10° NNE 20:54:19 56° ESE 20:59:47 10° S
Lacrosse 4 Rocket 1.3 20:52:11 10° SSW 20:56:21 86° ESE 21:00:27 10° NNE
Cosmos 292 Rocket 4.0 20:51:43 10° SSW 20:56:29 79° WNW 21:01:15 10° NNE
Tiangong 2.8 20:54:52 10° SSW 20:57:02 17° SSE 20:59:13 10° ESE
DELTA 2 R/B (1) 4.5 20:54:13 10° WSW 20:59:10 33° S 21:04:07 10° SE
FALCON 9 DEB 3.4 21:01:41 10° SSW 21:04:44 38° SE 21:07:49 10° ENE
SL-8 R/B 3.7 21:01:36 10° WSW 21:06:23 71° SSE 21:11:12 10° ENE
Terra 2.8 21:03:21 10° SE 21:07:36 34° ENE 21:11:53 10° N
USA 267 3.6 21:04:57 10° ENE 21:11:09 43° SE 21:17:18 10° SSW
Cosmos 1455 3.7 21:08:30 10° NNE 21:11:34 23° ENE 21:14:37 10° SE
Meteor 1-24 Rocket 4.2 21:07:14 10° SSE 21:12:03 37° E 21:16:57 10° NNE
Cosmos 2369 Rocket 3.3 21:07:29 10° NW 21:12:39 39° WSW 21:17:49 10° S
Cosmos 2315 Rocket 4.3 21:07:09 10° SSE 21:13:14 51° E 21:19:19 10° NNE
SL-24 R/B 4.4 21:13:40 10° S 21:17:51 70° WSW 21:22:20 10° NNW
ERBS 3.9 21:16:13 10° W 21:18:33 21° SW 21:20:54 10° S
Spot 2 Rocket 3.7 21:15:41 10° SSE 21:20:41 65° ENE 21:25:46 10° N
CZ-4B R/B 2.7 21:24:37 10° N 21:27:19 35° WNW 21:29:58 10° SW
Lacrosse 5 rocket 2.0 21:23:43 10° NW 21:27:25 46° NNE 21:31:19 10° ESE
ARIANE 5 R/B 3.5 21:23:37 11° SE 21:27:32 37° ENE 21:31:39 10° N
SPOT 3 Rocket 3.7 21:23:23 10° S 21:28:33 75° WSW 21:33:47 10° NNW
Cosmos 1709 Rocket 4.0 21:22:38 10° N 21:28:51 82° E 21:35:06 10° S
Cosmos 2251 Rocket 4.3 21:25:16 10° NNW 21:30:25 50° WSW 21:35:34 10° S
ATLAS 2AS CENTAUR R/B 3.1 21:31:17 10° NW 21:38:26 60° NE 21:44:51 11° ESE
Cosmos 1624 Rocket 4.2 21:34:17 10° S 21:39:20 51° ESE 21:44:24 10° NNE
Cosmos 1190 Rocket 4.1 21:37:44 10° NNW 21:43:06 88° ENE 21:47:39 14° SSE
NOSS 3-4 (A) 4.4 21:37:05 10° NW 21:43:53 53° WSW 21:51:02 12° SSE
NOSS 3-4 (C) 4.4 21:37:11 10° NW 21:43:58 53° WSW 21:51:05 12° SSE
USA 234 3.5 21:39:39 10° ESE 21:46:09 70° NNE 21:52:41 10° NW
Meteor 2-10 Rocket 4.4 21:43:59 10° NNW 21:48:47 43° W 21:53:30 10° SSW
Cosmos 407 Rocket 4.0 21:45:07 10° NNW 21:50:13 56° WSW 21:54:51 12° S
Cosmos 1455 Rocket 3.4 21:46:14 10° NNW 21:50:34 62° W 21:54:41 11° S
SPOT 5 3.0 21:52:00 12° S 21:56:10 62° WSW 22:00:31 10° NNW
Cosmos 1271 Rocket 2.8 21:54:32 10° N 21:58:32 71° ENE 22:01:16 19° SSE
Cosmos 2056 Rocket 3.5 21:53:39 10° SSW 21:58:59 75° ESE 22:04:25 10° NNE
Meteor 2-5 Rocket 3.8 21:55:36 10° SSW 22:01:07 77° WNW 22:06:42 10° N
Cosmos 1025 Rocket 3.3 21:57:54 10° SSW 22:02:08 66° W 22:06:25 10° N
ERS-1 Rocket 3.4 22:04:36 13° S 22:09:02 57° W 22:14:01 10° NNW
Cosmos 676 Rocket 4.0 22:04:14 10° NNW 22:09:36 90° NE 22:13:24 19° SSE
USA 32 4.2 22:04:52 10° S 22:10:05 77° W 22:15:21 10° N
Cosmos 1420 Rocket 4.0 22:06:03 10° SSW 22:11:16 76° ESE 22:16:34 10° NNE
Cosmos 1607 3.9 22:10:12 10° SSW 22:16:25 75° SE 22:22:37 10° NE
Cosmos 1536 Rocket 3.6 22:13:48 20° S 22:16:39 60° E 22:20:56 10° NNE
CZ-2C R/B 4.0 22:14:32 10° N 22:19:10 67° WNW 22:23:40 10° SSW
Helios 1A Rocket 4.4 22:19:57 11° SSW 22:23:20 31° W 22:26:59 10° NNW
Lacrosse 5 2.0 22:18:51 10° NW 22:23:59 77° NE 22:27:56 17° ESE
NOSS 2-1 (E) 4.1 22:20:22 10° NW 22:24:53 79° NE 22:29:25 19° SE
Cosmos 1606 Rocket 4.5 22:21:12 10° N 22:25:11 35° ENE 22:27:26 21° SE
SAR-Lupe-4 3.7 22:24:11 10° NNE 22:27:43 55° ESE 22:29:20 28° SSE
Cosmos 2184 Rocket 4.0 22:23:15 10° N 22:29:27 86° E 22:33:50 21° S
Cosmos 724 4.3 22:24:23 11° SSW 22:29:54 56° ESE 22:35:34 10° NE
Cosmos 1954 Rocket 4.4 22:25:49 10° NNW 22:30:59 57° WSW 22:34:29 20° S
Tiangong 2.6 22:30:40 10° WSW 22:32:27 22° SSW 22:32:27 22° SSW
Cosmos 1850 Rocket 4.2 22:30:40 10° NNW 22:35:52 62° ENE 22:39:02 23° SE
CSL-04 DEB 4.5 22:31:51 10° NNE 22:36:10 75° ESE 22:38:53 22° S
Cosmos 2228 3.0 22:34:48 10° N 22:39:04 73° E 22:41:10 29° SSE
Meteor 1-21 Rocket 4.4 22:35:49 23° SSE 22:39:10 55° E 22:44:39 10° NNE
Cosmos 1703 3.1 22:38:48 27° S 22:40:48 81° E 22:44:41 10° NNE
FALCON 9 DEB 4.0 22:37:49 10° W 22:40:59 48° NNW 22:44:11 10° ENE
SAR-Lupe-1 4.0 22:39:40 10° NNE 22:43:16 83° WNW 22:45:11 26° SSW
Cosmos 1408 4.4 22:43:33 16° E 22:44:04 17° E 22:46:19 10° NE
Terra 3.1 22:41:45 14° SSW 22:45:21 32° W 22:49:39 10° NNW
Cosmos 1455 3.7 22:43:43 10° NNW 22:47:02 29° W 22:49:28 15° SW
SL-8 R/B 3.7 22:44:07 10° W 22:48:57 84° N 22:53:48 10° E
ALOS 2 3.9 22:46:37 18° ESE 22:48:59 30° ENE 22:52:50 10° N
Cosmos 1726 Rocket 4.0 22:47:28 10° N 22:51:42 50° ENE 22:53:36 28° SE
USA 267 3.5 22:47:55 10° NE 22:54:27 73° NNW 23:00:57 10° WSW
Cosmos 1980 Rocket 3.5 22:49:21 10° NNW 22:54:29 32° NE 22:59:14 11° ESE
RESURS DK-1 2.7 22:52:58 10° NNW 22:57:03 57° ENE 22:59:03 28° SE
Cosmos 1697 Rocket 3.0 22:53:34 10° NNW 22:59:09 59° ENE 23:02:41 22° SE
Cosmos 1331 Rocket 4.4 22:57:21 28° SSE 22:59:51 49° ESE 23:04:58 10° NNE
Cosmos 1452 Rocket 3.4 22:57:19 21° SSW 23:00:55 83° ESE 23:06:13 10° NNE
ARIANE 5 R/B 4.3 23:01:09 14° SW 23:04:03 26° W 23:07:51 10° NW
NOSS 2-1 (C) 4.4 23:01:50 10° NW 23:06:20 52° SW 23:09:23 27° S
Lacrosse 5 rocket 2.1 23:02:47 10° WNW 23:06:24 36° SW 23:07:17 31° SSW
Spot 4 3.9 23:04:25 30° SSE 23:06:47 71° ENE 23:11:34 10° N
Cosmos 1892 3.9 23:06:34 25° ESE 23:07:19 27° E 23:10:32 10° NNE
USA 276 4.2 23:10:14 15° E 23:10:14 15° E 23:10:50 10° ENE
Cosmos 2084 3.8 23:04:26 10° WSW 23:08:12 56° NW 23:12:03 10° NE
ASTEX 1 3.4 23:03:49 10° N 23:08:51 87° W 23:11:36 27° S
ERS-2 3.9 23:06:41 10° NE 23:09:09 17° E 23:09:26 17° E
ADEOS Rocket 3.8 23:05:35 21° SE 23:10:19 57° ENE 23:17:41 10° N
Meteor 2-1 Rocket 4.2 23:08:34 10° NNW 23:14:05 77° W 23:17:01 29° S
Cosmos 2058 Rocket 3.5 23:10:38 10° N 23:14:56 51° ENE 23:16:43 31° SE
Cosmos 1110 Rocket 4.0 23:15:12 27° S 23:18:03 75° ESE 23:23:21 10° NNE
Cosmos 2181 Rocket 4.5 23:15:18 26° SE 23:18:23 45° E 23:24:13 10° NNE
GP-B 3.0 23:16:44 10° N 23:21:12 86° W 23:23:05 34° S
Cosmos 2360 4.2 23:16:06 10° NNW 23:21:53 83° ENE 23:25:01 28° SSE
Cosmos 1892 Rocket 3.5 23:22:22 36° S 23:24:05 74° E 23:28:31 10° NNE
Cosmos 1656 4.2 23:20:36 10° NW 23:25:47 46° WSW 23:28:19 28° SSW
ATLAS 2AS CENTAUR R/B 3.5 23:22:43 10° NW 23:29:04 37° WSW 23:32:16 24° SSW
USA 234 3.7 23:26:12 27° S 23:29:24 46° SW 23:35:40 10° WNW
Cosmos 1833 Rocket 2.6 23:26:16 26° SSW 23:29:31 78° ESE 23:35:10 10° NNE
BREEZE-M DEB (TANK) 3.7 23:35:41 10° W 23:38:46 78° N 23:49:54 10° E
Okean 1-7 Rocket 4.1 23:39:48 34° SE 23:41:11 45° E 23:45:26 10° NNE
Cosmos 1626 Rocket 4.3 23:42:03 32° SE 23:43:17 40° E 23:47:20 10° NNE
Cosmos 2082 Rocket 2.7 23:41:32 31° SSE 23:43:42 44° ESE 23:49:06 10° NE
Meteor 1-27 4.3 23:43:01 10° N 23:48:37 69° ENE 23:51:21 31° SSE
Cosmos 1869 3.6 23:46:02 10° N 23:49:50 54° ENE 23:50:55 39° SE
BREEZE-M DEB (TANK) 3.8 23:44:10 10° SW 23:55:29 61° SSE 23:59:00 10° ENE
Cosmos-2242 4.3 23:51:48 10° N 23:55:36 31° ENE 23:57:28 22° ESE
